PDT,Max TemperatureF,Mean TemperatureF,Min TemperatureF,Max Dew PointF,MeanDew PointF,Min DewpointF,Max Humidity, Mean Humidity, Min Humidity, Max Sea Level PressureIn, Mean Sea Level PressureIn, Min Sea Level PressureIn, Max VisibilityMiles, Mean VisibilityMiles, Min VisibilityMiles, Max Wind SpeedMPH, Mean Wind SpeedMPH, Max Gust SpeedMPH,PrecipitationIn, CloudCover, Events, WindDirDegrees
2013-7-1,99,80,60,65,57,51,73,50,27,30.02,29.95,29.86,10,10,10,15,7,21,0.00,0,,332
2013-7-2,103,82,61,61,55,46,78,47,16,29.96,29.88,29.78,10,10,10,21,6,29,0.00,0,,250
2013-7-3,92,78,64,59,48,43,53,36,19,29.99,29.89,29.81,10,10,10,23,9,30,0.00,0,,341
2013-7-4,91,76,61,48,41,33,60,38,16,29.86,29.80,29.72,10,10,10,20,8,24,0.00,0,,320
2013-7-5,88,76,63,46,43,39,48,35,21,29.83,29.78,29.73,10,10,10,18,10,24,0.00,2,,353
2013-7-6,88,76,64,46,42,39,48,33,18,29.89,29.84,29.78,10,10,10,21,11,26,0.00,3,,349
2013-7-7,89,76,62,52,45,40,63,42,20,29.89,29.85,29.77,10,10,10,24,12,31,T,2,Rain,341
2013-7-8,88,73,57,54,49,45,75,49,22,30.02,29.93,29.85,10,10,10,17,8,22,0.00,0,Thunderstorm,333
2013-7-9,94,74,54,52,47,43,77,47,17,30.10,30.01,29.90,10,10,10,16,6,22,0.00,0,,237
2013-7-10,95,76,56,48,42,34,67,40,13,29.92,29.80,29.66,10,10,10,21,8,31,0.00,0,,252
2013-7-11,86,69,52,44,31,16,57,33,9,29.85,29.78,29.74,10,10,10,21,9,32,0.00,0,,236
2013-7-12,76,66,56,42,35,30,48,34,19,29.97,29.90,29.86,10,10,10,17,9,23,T,1,,331
2013-7-13,83,66,49,43,37,27,63,39,14,30.09,30.04,29.98,10,10,10,13,6,17,0.00,1,,306
2013-7-14,91,70,49,42,36,29,59,35,11,30.09,29.97,29.81,10,10,10,21,7,26,0.00,0,,246
2013-7-15,84,72,59,41,39,36,46,32,18,30.05,30.00,29.91,10,10,10,24,16,33,0.00,0,,3
2013-7-16,94,75,55,46,42,40,51,34,17,30.04,29.92,29.79,10,10,10,23,13,30,0.00,0,,344
2013-7-17,90,76,62,59,53,44,63,46,29,30.06,29.96,29.83,10,9,2,22,10,28,0.26,2,Rain-Thunderstorm,345
2013-7-18,92,78,64,57,52,38,73,44,15,30.14,30.06,29.97,10,10,10,17,10,24,0.00,0,,336
2013-7-19,98,81,64,52,46,35,60,36,11,30.04,29.95,29.84,10,10,10,14,7,18,0.00,0,,325
2013-7-20,99,79,59,46,38,25,56,32,8,29.90,29.81,29.69,10,10,10,16,7,18,0.00,0,,311
2013-7-21,98,81,63,48,44,37,45,29,12,29.78,29.72,29.63,10,10,10,15,8,18,0.00,0,,294
2013-7-22,97,80,62,47,43,35,52,32,12,29.84,29.78,29.70,10,10,10,18,8,24,0.00,0,,317
2013-7-23,98,80,62,46,41,29,44,26,8,29.96,29.89,29.81,10,10,10,16,7,20,0.00,0,,297
2013-7-24,99,80,61,44,36,21,48,27,6,29.93,29.88,29.82,10,10,10,15,7,20,0.00,0,,316
2013-7-25,101,78,54,42,36,28,47,28,8,29.97,29.90,29.84,10,10,10,15,6,20,0.00,0,,300
2013-7-26,100,79,58,37,32,27,39,24,8,30.01,29.92,29.82,10,10,9,16,9,22,0.00,0,,315
2013-7-27,89,75,60,42,38,33,39,27,15,29.98,29.90,29.79,10,10,10,18,8,24,0.00,0,,333
2013-7-28,91,78,64,41,39,36,37,26,15,29.86,29.82,29.76,10,10,10,23,13,30,0.00,0,,354
2013-7-29,91,78,65,43,40,36,43,30,16,29.92,29.87,29.83,10,10,10,20,11,25,0.00,0,,346
2013-7-30,92,77,62,44,40,34,43,29,14,30.04,30.00,29.94,10,10,10,16,9,20,0.00,0,,331
2013-7-31,94,78,61,49,42,39,46,31,15,30.10,30.01,29.91,10,10,10,17,8,23,T,1,Rain,347